Weather History for KSFY - May, 2013

Change the Weather History Date:

Friday, May 10, 2013

  Actual Average (KCWI) Record (KCWI)
Temperature  
Mean Temperature 50 °F -  
Max Temperature 55 °F 73 °F 91 °F (2011)
Min Temperature 44 °F 46 °F 28 °F (1966)
Degree Days  
Heating Degree Days 15    
Moisture  
Dew Point 46 °F    
Average Humidity 84    
Maximum Humidity 97    
Minimum Humidity 73    
Precipitation  
Precipitation 0.04 in - - ()
Sea Level Pressure  
Sea Level Pressure 29.94 in    
Wind  
Wind Speed 10 mph (NNE)    
Max Wind Speed 15 mph    
Max Gust Speed 24 mph    
Visibility 9 miles    
Events Fog , Rain    
Averages and records for this station are not official NWS values.
T = Trace of Precipitation, MM = Missing Value Source: NWS Daily Summary

Daily Weather History Graph

Daily Weather History Graph

Search for Another Location

Airport or City:

Trip Planner

Search our weather history database for the weather conditions in past years. The results will help you decide how hot, cold, wet, or windy it might be!

Date:

Astronomy

May. 10, 2013 Rise Set
Actual Time 5:44 AM CDT 8:09 PM CDT
Civil Twilight 5:13 AM CDT 8:40 PM CDT
Nautical Twilight 4:34 AM CDT 9:20 PM CDT
Astronomical Twilight 3:51 AM CDT 10:03 PM CDT
Moon 6:09 AM CDT (5/10) 8:59 PM CDT (5/10)
Length of Visible Light 15h 27m
Length of Day
14h 24m
New Moon, 0% of the Moon is Illuminated
May 10
New Moon
May 17
First Quarter
May 24
Full
May 31
Last Quarter
Jun 8
New

Hourly Weather History & Observations

Time (CDT) Temp. Dew Point Humidity Pressure Visibility Wind Dir Wind Speed Gust Speed Precip Events Conditions
12:15 AM 56.1 °F 53.8 °F 92% 29.81 in 5.0 mi NE 15.0 mph 24.2 mph N/A Rain Light Rain
12:55 AM 53.4 °F 51.3 °F 92% 29.82 in 10.0 mi NE 13.8 mph 17.3 mph 0.01 in   Overcast
1:15 AM 52.9 °F 50.5 °F 92% 29.82 in 10.0 mi NNE 11.5 mph 17.3 mph N/A   Overcast
1:35 AM 52.2 °F 50.0 °F 92% 29.83 in 10.0 mi NNE 11.5 mph - N/A   Overcast
1:55 AM 51.3 °F 48.6 °F 90% 29.83 in 10.0 mi NNE 15.0 mph 21.9 mph N/A   Overcast
2:15 AM 51.1 °F 48.4 °F 90% 29.83 in 10.0 mi NNE 13.8 mph 17.3 mph N/A   Overcast
2:35 AM 51.1 °F 48.4 °F 90% 29.83 in 10.0 mi NNE 12.7 mph 17.3 mph N/A   Overcast
2:55 AM 50.9 °F 48.2 °F 90% 29.83 in 10.0 mi North 8.1 mph - N/A   Overcast
3:15 AM 50.9 °F 47.8 °F 89% 29.83 in 10.0 mi NNE 12.7 mph - N/A   Overcast
3:35 AM 50.9 °F 47.3 °F 87% 29.84 in 10.0 mi NNE 11.5 mph - N/A   Overcast
3:55 AM 50.0 °F 46.6 °F 88% 29.85 in 10.0 mi NNE 10.4 mph 19.6 mph N/A   Overcast
4:15 AM 49.6 °F 45.9 °F 87% 29.86 in 10.0 mi NNE 11.5 mph 17.3 mph N/A   Overcast
4:35 AM 49.5 °F 46.6 °F 90% 29.87 in 7.0 mi North 8.1 mph - N/A   Overcast
4:55 AM 49.1 °F 46.4 °F 90% 29.88 in 10.0 mi North 9.2 mph - N/A   Overcast
5:15 AM 48.2 °F 45.5 °F 90% 29.89 in 7.0 mi North 12.7 mph 20.7 mph N/A Rain Rain
5:35 AM 47.3 °F 45.0 °F 92% 29.89 in 10.0 mi North 13.8 mph 18.4 mph 0.02 in Rain Light Rain
5:55 AM 46.6 °F 44.1 °F 91% 29.89 in 10.0 mi North 12.7 mph - 0.03 in   Light Drizzle
6:15 AM 46.6 °F 43.3 °F 88% 29.89 in 10.0 mi North 9.2 mph - N/A   Overcast
6:35 AM 46.8 °F 43.5 °F 88% 29.90 in 10.0 mi North 6.9 mph - N/A   Overcast
7:15 AM 46.9 °F 43.7 °F 88% 29.92 in 10.0 mi North 11.5 mph 17.3 mph N/A   Overcast
7:35 AM 47.1 °F 43.5 °F 87% 29.92 in 10.0 mi North 9.2 mph 16.1 mph N/A   Overcast
8:15 AM 47.5 °F 43.9 °F 87% 29.94 in 10.0 mi North 8.1 mph - N/A   Overcast
8:35 AM 47.7 °F 43.5 °F 86% 29.94 in 10.0 mi North 11.5 mph 19.6 mph N/A   Overcast
8:55 AM 48.2 °F 43.2 °F 83% 29.94 in 10.0 mi NNE 8.1 mph - N/A   Overcast
9:15 AM 48.2 °F 43.2 °F 83% 29.94 in 10.0 mi North 10.4 mph - N/A   Overcast
9:35 AM 48.6 °F 43.2 °F 82% 29.94 in 10.0 mi NNE 11.5 mph - N/A   Overcast
9:55 AM 48.9 °F 43.5 °F 82% 29.95 in 10.0 mi North 6.9 mph - N/A   Overcast
10:15 AM 49.1 °F 43.5 °F 81% 29.95 in 10.0 mi North 11.5 mph 15.0 mph N/A   Overcast
10:35 AM 49.1 °F 43.5 °F 81% 29.96 in 10.0 mi NNW 10.4 mph - N/A   Overcast
10:55 AM 48.9 °F 43.7 °F 82% 29.96 in 10.0 mi NNE 11.5 mph 17.3 mph N/A   Overcast
11:15 AM 49.6 °F 43.7 °F 80% 29.97 in 10.0 mi North 10.4 mph 17.3 mph N/A   Overcast
11:35 AM 49.5 °F 43.9 °F 81% 29.97 in 10.0 mi North 11.5 mph - N/A   Overcast
12:15 PM 49.6 °F 44.1 °F 81% 29.98 in 10.0 mi North 10.4 mph - N/A   Overcast
12:35 PM 50.2 °F 44.6 °F 81% 29.98 in 10.0 mi North 10.4 mph - N/A   Overcast
12:55 PM 50.4 °F 44.8 °F 81% 29.99 in 10.0 mi North 10.4 mph - N/A   Overcast
1:15 PM 50.9 °F 45.1 °F 81% 29.98 in 10.0 mi NNE 11.5 mph - N/A   Overcast
1:35 PM 50.0 °F 44.8 °F 82% 29.99 in 10.0 mi NNW 10.4 mph - N/A   Overcast
1:55 PM 51.6 °F 45.3 °F 79% 29.98 in 10.0 mi North 6.9 mph - N/A   Overcast
2:15 PM 52.7 °F 45.7 °F 77% 29.97 in 10.0 mi North 13.8 mph - N/A   Overcast
2:35 PM 53.8 °F 46.2 °F 76% 29.97 in 10.0 mi NNE 10.4 mph - N/A   Overcast
2:55 PM 53.8 °F 46.2 °F 76% 29.97 in 10.0 mi North 10.4 mph - N/A   Overcast
3:15 PM 54.0 °F 46.4 °F 76% 29.97 in 10.0 mi North 10.4 mph - N/A   Overcast
3:35 PM 54.0 °F 46.6 °F 76% 29.97 in 10.0 mi NNE 9.2 mph - N/A   Overcast
3:55 PM 54.5 °F 46.6 °F 75% 29.97 in 10.0 mi NNE 6.9 mph - N/A   Overcast
4:15 PM 55.4 °F 46.9 °F 73% 29.97 in 10.0 mi NNW 5.8 mph - N/A   Overcast
4:35 PM 55.0 °F 46.6 °F 73% 29.96 in 10.0 mi North 12.7 mph - N/A   Overcast
5:15 PM 55.4 °F 47.5 °F 75% 29.97 in 10.0 mi NNE 5.8 mph - N/A   Overcast
5:35 PM 55.2 °F 47.1 °F 74% 29.97 in 10.0 mi NNE 8.1 mph - N/A   Overcast
5:55 PM 54.5 °F 46.6 °F 75% 29.97 in 10.0 mi NNE 6.9 mph - N/A   Overcast
6:15 PM 54.7 °F 46.9 °F 75% 29.98 in 10.0 mi North 8.1 mph - N/A   Overcast
6:35 PM 54.5 °F 46.6 °F 75% 29.98 in 10.0 mi NNE 8.1 mph - N/A   Overcast
6:55 PM 54.5 °F 46.4 °F 74% 29.98 in 10.0 mi NNE 6.9 mph - N/A   Overcast
7:15 PM 54.5 °F 46.4 °F 74% 29.98 in 10.0 mi NNE 5.8 mph - N/A   Overcast
7:35 PM 53.8 °F 46.4 °F 76% 29.98 in 10.0 mi NE 5.8 mph - N/A   Overcast
7:55 PM 53.2 °F 46.4 °F 78% 29.98 in 10.0 mi ENE 5.8 mph - N/A   Overcast
8:15 PM 51.6 °F 46.0 °F 81% 29.98 in 10.0 mi ENE 4.6 mph - N/A   Mostly Cloudy
8:35 PM 50.0 °F 45.7 °F 85% 29.99 in 10.0 mi East 4.6 mph - N/A   Scattered Clouds
8:55 PM 50.0 °F 46.2 °F 87% 29.99 in 10.0 mi Calm Calm - N/A   Clear
9:15 PM 50.4 °F 46.2 °F 86% 30.00 in 10.0 mi Calm Calm - N/A   Clear
9:35 PM 50.0 °F 46.6 °F 88% 30.00 in 10.0 mi Calm Calm - N/A   Clear
9:55 PM 49.5 °F 46.4 °F 89% 30.00 in 10.0 mi Calm Calm - N/A   Clear
10:15 PM 46.9 °F 45.0 °F 93% 30.00 in 10.0 mi Calm Calm - N/A   Clear
10:35 PM 46.6 °F 45.1 °F 95% 29.99 in 10.0 mi Calm Calm - N/A   Clear
10:55 PM 46.4 °F 45.0 °F 95% 29.98 in 3.0 mi Calm Calm - N/A   Clear
11:15 PM 45.3 °F 44.1 °F 95% 29.98 in 1.8 mi Calm Calm - N/A   Mist
11:35 PM 44.6 °F 43.7 °F 97% 29.98 in 0.8 mi Calm Calm - N/A   Mist
11:55 PM 44.6 °F 43.3 °F 95% 29.98 in 0.2 mi Calm Calm - N/A Fog Fog